GW0518 Weather Reports


time (UTC)temp
C
wind
direction
speed
KPH
gust
KPH
rain 1hr
cm
rain 24hr
cm
rain mn
cm
humidity
%
barometer
mb
20260506211937 7 285 4.8 11.3 0.00 1.73 1.04 97 1010.0
20260506211433 7 306 3.2 8.0 0.00 1.73 1.04 97 1010.0
20260506210716 6 309 3.2 8.0 0.00 1.73 1.04 97 1010.0
20260506210438 6 309 4.8 12.9 0.00 1.73 1.04 97 1009.9
20260506205715 6 316 4.8 12.9 0.00 1.73 1.04 97 1010.0
20260506205216 6 299 4.8 11.3 0.00 1.75 1.04 97 1010.0
20260506204716 6 297 6.4 14.5 0.00 1.75 1.04 97 1010.0
20260506204217 6 307 6.4 14.5 0.00 1.80 1.04 97 1010.0
20260506203716 6 295 4.8 14.5 0.00 1.80 1.04 97 1009.9
20260506203437 6 355 4.8 9.7 0.00 1.80 1.04 97 1009.8
20260506202716 6 355 4.8 9.7 0.00 1.80 1.04 97 1009.8
20260506202444 6 355 4.8 9.7 0.00 1.80 1.04 97 1009.7
20260506201715 6 355 4.8 14.5 0.00 1.80 1.04 97 1009.6
20260506201216 6 346 6.4 16.1 0.00 1.88 1.04 97 1009.6
20260506200716 6 319 6.4 16.1 0.00 1.88 1.04 97 1009.5
20260506200435 6 307 8.0 14.5 0.00 1.88 1.04 97 1009.6
20260506195715 6 310 6.4 16.1 0.00 1.88 1.04 97 1009.5
20260506195217 6 333 8.0 19.3 0.00 1.88 1.04 97 1009.6
20260506194716 6 347 8.0 19.3 0.00 1.88 1.04 97 1009.7
20260506194216 6 355 8.0 19.3 0.00 1.88 1.04 97 1009.6
20260506193715 6 350 9.7 19.3 0.00 1.88 1.04 97 1009.5
20260506193216 6 0 8.0 16.1 0.00 1.88 1.04 97 1009.6
20260506192933 6 346 8.0 16.1 0.00 1.88 1.04 97 1009.5
20260506192216 6 322 6.4 17.7 0.00 1.88 1.04 97 1009.5
20260506191937 6 302 4.8 17.7 0.00 1.88 1.04 97 1009.5
20260506191215 6 313 4.8 12.9 0.00 1.88 1.04 97 1009.5
20260506190716 6 302 4.8 12.9 0.00 1.88 1.04 97 1009.4
20260506190216 6 355 8.0 17.7 0.00 1.88 1.04 97 1009.3
20260506185716 6 5 8.0 17.7 0.00 1.88 1.04 97 1009.2
20260506185216 6 355 6.4 16.1 0.00 1.88 1.04 97 1009.1
20260506184716 6 350 6.4 14.5 0.00 1.88 1.04 97 1009.1
20260506184216 6 341 6.4 16.1 0.00 1.88 1.04 97 1009.2
20260506183937 6 309 6.4 17.7 0.00 1.88 1.04 97 1009.3
20260506183215 6 5 8.0 17.7 0.00 1.88 1.04 97 1009.3
20260506182716 6 341 6.4 16.1 0.00 1.88 1.04 97 1009.2
20260506182431 6 28 6.4 17.7 0.00 1.88 1.04 97 1009.1
20260506181716 6 355 6.4 17.7 0.00 1.88 1.04 97 1009.1
20260506181215 6 323 8.0 16.1 0.00 1.91 1.04 97 1009.0
20260506180715 6 355 8.0 16.1 0.00 1.93 1.04 97 1008.9
20260506180215 7 355 6.4 16.1 0.00 2.03 1.04 97 1008.9
20260506175716 7 320 6.4 14.5 0.00 2.06 1.04 97 1008.7
20260506175216 7 355 6.4 14.5 0.00 2.11 1.04 97 1008.7
20260506174940 7 350 8.0 16.1 0.00 2.31 1.04 97 1008.5
20260506174216 7 13 8.0 16.1 0.00 2.31 1.04 97 1008.5
20260506173715 7 348 4.8 14.5 0.00 2.34 1.04 97 1008.4
20260506173216 7 324 4.8 12.9 0.00 2.39 1.04 97 1008.4
20260506172215 7 296 4.8 8.0 0.00 2.39 1.04 97 1008.3
20260506171715 7 319 4.8 9.7 0.03 2.39 1.04 97 1008.2
20260506171216 7 319 4.8 12.9 0.03 2.39 1.04 97 1008.4
20260506170715 7 317 3.2 12.9 0.03 2.41 1.04 97 1008.4
20260506170215 7 327 3.2 6.4 0.03 2.67 1.04 97 1008.2
20260506165715 7 330 3.2 8.0 0.03 2.67 1.04 97 1008.3
20260506165216 7 329 4.8 9.7 0.03 2.67 1.04 97 1008.2
20260506164940 7 333 4.8 9.7 0.03 2.67 1.04 97 1008.1
20260506164215 7 0 4.8 11.3 0.05 2.67 1.04 97 1008.2
20260506163716 7 5 4.8 11.3 0.05 2.67 1.04 97 1008.1
20260506163215 7 14 6.4 14.5 0.05 2.67 1.04 97 1008.3
20260506162715 7 12 6.4 14.5 0.05 2.67 1.04 97 1008.2
20260506162216 7 355 6.4 12.9 0.05 2.67 1.04 97 1008.3
20260506161715 7 320 4.8 12.9 0.03 2.64 1.02 97 1008.4
20260506161216 7 5 4.8 12.9 0.03 2.64 1.02 97 1008.3
20260506160715 7 5 4.8 12.9 0.03 2.64 1.02 97 1008.2
20260506160216 6 0 4.8 12.9 0.03 2.64 1.02 97 1008.4
20260506155715 6 5 3.2 8.0 0.03 2.64 1.02 97 1008.6
20260506155216 6 5 4.8 9.7 0.03 2.64 1.02 97 1008.6
20260506154716 6 348 6.4 16.1 0.03 2.64 1.02 97 1008.6
20260506154215 6 5 6.4 16.1 0.00 2.62 0.99 97 1008.6
20260506153715 6 355 6.4 14.5 0.00 2.62 0.99 97 1008.6
20260506153215 6 355 6.4 14.5 0.03 2.62 0.99 97 1008.7
20260506152716 6 9 6.4 12.9 0.03 2.62 0.99 97 1008.6
20260506152215 6 5 6.4 12.9 0.03 2.62 0.99 97 1008.5
20260506151715 6 5 6.4 12.9 0.03 2.62 0.99 97 1008.4
20260506151215 6 5 6.4 12.9 0.03 2.62 0.99 97 1008.5
20260506150715 6 5 6.4 12.9 0.05 2.62 0.99 97 1008.4
20260506145715 6 22 6.4 11.3 0.05 2.62 0.99 97 1008.1
20260506145215 6 15 4.8 11.3 0.08 2.62 0.99 97 1008.3
20260506144715 6 76 3.2 8.0 0.08 2.62 0.99 97 1008.1
20260506144216 6 76 4.8 8.0 0.08 2.62 0.99 97 1007.9
20260506143939 6 76 4.8 8.0 0.08 2.62 0.99 97 1007.9
20260506143215 6 76 4.8 11.3 0.08 2.59 0.97 97 1007.9
20260506142715 6 122 4.8 11.3 0.08 2.59 0.97 97 1007.7
20260506142215 6 59 4.8 9.7 0.08 2.59 0.97 97 1007.9
20260506141716 6 59 4.8 9.7 0.10 2.59 0.97 97 1007.9
20260506141215 6 60 4.8 12.9 0.10 2.59 0.97 97 1007.9
20260506140715 6 59 4.8 12.9 0.10 2.57 0.94 97 1008.0
20260506140215 6 80 4.8 11.3 0.10 2.57 0.94 97 1007.8
20260506135715 6 86 4.8 12.9 0.13 2.57 0.91 96 1007.9
20260506135215 6 87 6.4 12.9 0.13 2.54 0.91 96 1007.9
20260506134715 6 60 6.4 11.3 0.13 2.54 0.91 96 1008.0
20260506134215 6 60 6.4 11.3 0.15 2.54 0.91 96 1007.9
20260506133716 6 49 4.8 11.3 0.18 2.54 0.91 96 1008.0
20260506133215 6 74 6.4 12.9 0.18 2.51 0.89 96 1008.1
20260506132715 6 55 6.4 14.5 0.20 2.51 0.89 96 1008.1
20260506132214 6 51 6.4 14.5 0.23 2.51 0.89 96 1008.2
20260506131939 6 39 4.8 14.5 0.20 2.49 0.86 96 1008.3
20260506131215 6 17 4.8 14.5 0.23 2.49 0.86 96 1008.2
20260506130936 6 57 6.4 14.5 0.20 2.46 0.84 96 1008.1
20260506130215 6 64 6.4 14.5 0.23 2.46 0.84 96 1008.2
20260506125716 6 55 6.4 14.5 0.23 2.44 0.81 96 1008.1
20260506125215 6 40 6.4 14.5 0.20 2.41 0.79 96 1008.2
20260506124715 6 26 4.8 9.7 0.20 2.41 0.76 96 1008.4
20260506124216 6 58 4.8 9.7 0.18 2.39 0.76 96 1008.2
20260506123715 6 55 6.4 17.7 0.15 2.36 0.74 96 1008.0
20260506123436 6 54 8.0 17.7 0.15 2.34 0.71 96 1008.0
20260506122715 6 56 6.4 14.5 0.13 2.31 0.69 96 1008.1
20260506122215 6 52 6.4 14.5 0.10 2.29 0.66 96 1008.0
20260506121715 6 68 8.0 16.1 0.13 2.29 0.66 96 1007.8
20260506121215 6 56 8.0 17.7 0.10 2.26 0.64 96 1008.0
20260506120715 6 57 8.0 17.7 0.10 2.26 0.61 96 1008.0
20260506120216 6 62 8.0 19.3 0.10 2.24 0.61 96 1007.8
20260506115932 6 54 8.0 19.3 0.08 2.21 0.58 96 1008.0
20260506115215 6 51 8.0 19.3 0.10 2.21 0.58 96 1007.7
20260506114716 6 96 8.0 17.7 0.13 2.21 0.58 96 1007.7
20260506114215 6 59 9.7 20.9 0.15 2.21 0.58 96 1007.9
20260506113715 6 63 9.7 20.9 0.15 2.21 0.58 96 1008.0
20260506113215 6 45 8.0 19.3 0.15 2.18 0.56 96 1008.2
20260506112715 6 57 8.0 17.7 0.15 2.18 0.56 96 1008.1
20260506112215 6 38 8.0 17.7 0.15 2.18 0.56 96 1008.0
20260506111715 6 56 8.0 17.7 0.15 2.16 0.53 96 1008.2
20260506111215 6 57 8.0 17.7 0.15 2.16 0.53 96 1008.5
20260506110715 6 68 8.0 19.3 0.15 2.16 0.53 96 1008.3
20260506110215 6 54 9.7 19.3 0.13 2.13 0.51 96 1008.4
20260506105715 6 63 9.7 17.7 0.15 2.13 0.48 96 1008.5
20260506105215 6 47 8.0 17.7 0.13 2.11 0.48 96 1008.6
20260506104715 6 42 6.4 17.7 0.10 2.08 0.46 96 1008.5
20260506104216 6 53 6.4 14.5 0.08 2.06 0.43 96 1008.3
20260506103713 6 57 6.4 12.9 0.10 2.06 0.43 96 1008.3
20260506102712 6 41 8.0 17.7 0.13 2.03 0.41 96 1008.0
20260506102213 6 51 6.4 16.1 0.13 2.03 0.41 96 1007.9
20260506101713 6 86 6.4 14.5 0.13 2.01 0.38 96 1007.8
20260506100213 6 75 6.4 17.7 0.13 2.01 0.36 96 1007.9
20260506095936 6 59 8.0 17.7 0.13 1.98 0.36 96 1007.8
20260506095432 6 109 6.4 17.7 0.13 1.98 0.36 96 1007.7
20260506094712 6 69 6.4 16.1 0.15 1.98 0.36 96 1007.7
20260506094213 6 75 8.0 16.1 0.18 1.98 0.36 96 1007.8
20260506093713 6 130 9.7 19.3 0.15 1.96 0.33 96 1007.8
20260506093212 6 69 8.0 19.3 0.15 1.93 0.30 96 1008.0
20260506092933 6 73 8.0 19.3 0.13 1.91 0.28 96 1008.1
20260506092213 6 72 8.0 19.3 0.15 1.91 0.25 96 1008.2
20260506091714 6 50 8.0 19.3 0.13 1.88 0.25 96 1008.2
20260506091213 6 78 9.7 19.3 0.15 1.88 0.25 96 1008.3
20260506090713 6 47 8.0 17.7 0.15 1.88 0.25 96 1008.6
20260506090447 6 57 9.7 19.3 0.15 1.88 0.25 96 1008.7
20260506085933 6 61 9.7 19.3 0.15 1.85 0.23 96 1008.7
20260506085430 6 80 9.7 19.3 0.18 1.85 0.20 96 1008.9
20260506084712 6 5 9.7 20.9 0.18 1.83 0.20 96 1009.1
20260506084213 6 42 8.0 20.9 0.15 1.80 0.18 96 1008.8
20260506083712 7 52 9.7 19.3 0.15 1.80 0.18 96 1008.9
20260506083437 7 23 11.3 22.5 0.13 1.78 0.15 96 1008.7
20260506082713 7 44 11.3 22.5 0.13 1.78 0.15 96 1008.7
20260506082213 7 39 11.3 24.1 0.10 1.75 0.13 96 1008.8
20260506081712 8 76 11.3 24.1 0.10 1.75 0.13 96 1008.7
20260506081213 8 55 11.3 22.5 0.08 1.73 0.10 96 1008.3
20260506080936 8 45 9.7 22.5 0.08 1.73 0.10 96 1008.3
20260506080213 8 49 8.0 16.1 0.08 1.73 0.10 96 1008.6
20260506073213 8 61 4.8 14.5 0.00 1.83 0.03 96 1008.3
20260506072943 8 74 3.2 8.0 0.00 1.83 0.03 96 1008.4
20260506072213 8 75 4.8 11.3 0.03 1.83 0.03 96 1008.4
20260506071714 8 75 4.8 11.3 0.03 1.83 0.03 96 1008.2
20260506071212 8 76 4.8 12.9 0.03 1.83 0.03 96 1008.0
20260506070712 8 77 4.8 12.9 0.03 1.83 0.03 96 1007.9
20260506070213 8 115 3.2 11.3 0.03 1.83 0.03 96 1008.1
20260506062212 8 119 4.8 14.5 0.00 1.80 0.00 96 1008.3
20260506061712 8 111 3.2 6.4 0.00 1.80 0.00 96 1009.4
20260506061213 8 111 3.2 9.7 0.00 1.80 0.00 96 1008.9
20260506060713 8 111 1.6 9.7 0.00 1.80 0.00 96 1009.2
20260506060438 8 111 3.2 4.8 0.00 1.80 0.00 96 1008.8
20260506051212 8 108 1.6 4.8 0.00 1.83 0.00 96 1010.0
20260506050712 8 108 1.6 6.4 0.00 1.83 0.00 95 1010.1
20260506050213 8 108 1.6 6.4 0.00 1.83 0.00 96 1009.7
20260506044712 8 98 1.6 6.4 0.00 1.83 0.00 95 1009.8
20260506044433 8 98 1.6 3.2 0.00 1.83 0.00 95 1009.9
20260506043713 8 98 1.6 4.8 0.00 1.83 0.00 95 1010.3
20260506043212 8 98 3.2 6.4 0.00 1.83 0.00 95 1010.2
20260506042712 8 98 3.2 6.4 0.03 1.83 0.00 95 1009.8
20260506042212 8 98 1.6 4.8 0.08 1.83 0.00 95 1010.2
20260506041712 8 98 1.6 4.8 0.13 1.83 0.00 95 1010.0
20260506041212 8 98 3.2 6.4 0.18 1.83 0.00 95 1009.9
20260506040713 8 98 3.2 6.4 0.20 1.83 0.00 95 1010.1
20260506040318 8 71 1.6 6.4 0.23 1.83 0.00 95 1009.9
20260506035713 8 71 1.6 6.4 0.23 1.83 1.83 95 1009.9
20260506035212 8 60 1.6 4.8 0.25 1.83 1.83 95 1010.0
20260506034712 8 60 3.2 4.8 0.25 1.83 1.83 95 1009.9
20260506034212 8 59 3.2 4.8 0.28 1.83 1.83 95 1009.9
20260506033712 8 59 1.6 6.4 0.33 1.83 1.83 95 1010.0
20260506033212 8 58 1.6 6.4 0.36 1.83 1.83 95 1010.0
20260506032712 8 58 1.6 4.8 0.33 1.80 1.80 94 1010.2
20260506032212 8 58 0.0 3.2 0.30 1.75 1.73 94 1010.6
20260506031712 8 58 1.6 3.2 0.25 1.70 1.70 94 1010.4
20260506031212 8 58 1.6 6.4 0.20 1.65 1.65 94 1010.3
20260506030712 8 58 3.2 6.4 0.18 1.63 1.63 94 1010.0
20260506030212 8 57 3.2 6.4 0.18 1.60 1.60 94 1010.0
20260506025712 8 57 4.8 6.4 0.18 1.60 1.60 94 1010.1
20260506025211 8 58 4.8 8.0 0.18 1.57 1.57 94 1010.4
20260506024712 8 59 4.8 8.0 0.18 1.57 1.55 94 1010.7
20260506024212 8 59 3.2 8.0 0.18 1.55 1.52 94 1010.4
20260506023712 8 59 3.2 6.4 0.13 1.50 1.47 94 1010.5
20260506023212 8 59 3.2 6.4 0.13 1.47 1.47 94 1010.8
20260506022712 8 59 1.6 6.4 0.15 1.47 1.47 93 1010.7
20260506022212 8 59 1.6 6.4 0.15 1.45 1.45 93 1010.7
20260506021712 8 59 3.2 6.4 0.15 1.45 1.45 93 1010.7
20260506021212 8 59 3.2 6.4 0.15 1.45 1.45 93 1010.7
20260506020712 8 59 3.2 8.0 0.18 1.45 1.42 93 1010.7
20260506020212 8 59 3.2 8.0 0.15 1.42 1.42 93 1010.8
20260506015712 8 61 1.6 6.4 0.15 1.42 1.42 93 1010.7
20260506015212 8 61 1.6 4.8 0.13 1.40 1.40 92 1010.8
20260506014712 8 61 3.2 12.9 0.15 1.40 1.40 92 1010.6
20260506014211 8 61 4.8 12.9 0.13 1.37 1.37 92 1010.6
20260506013712 8 62 4.8 14.5 0.13 1.37 1.37 92 1010.0
20260506013212 8 73 4.8 14.5 0.10 1.35 1.35 91 1010.1
20260506012713 8 28 4.8 9.7 0.08 1.32 1.32 91 1010.4
20260506012211 8 23 4.8 9.7 0.08 1.30 1.30 91 1010.4
20260506011711 8 22 4.8 9.7 0.08 1.30 1.30 91 1010.3
20260506011448 8 22 4.8 9.7 0.08 1.30 1.30 90 1010.3
20260506010712 8 22 4.8 11.3 0.08 1.27 1.27 90 1010.4
20260506010213 8 22 4.8 11.3 0.13 1.27 1.27 89 1010.4
20260506005712 8 17 4.8 11.3 0.13 1.27 1.27 89 1010.3
20260506005211 8 15 6.4 16.1 0.13 1.27 1.27 88 1009.9
20260506004712 9 0 6.4 16.1 0.10 1.24 1.24 87 1009.9
20260506004211 9 29 6.4 14.5 0.10 1.24 1.24 87 1010.0
20260506003712 9 16 9.7 17.7 0.10 1.24 1.24 85 1009.9
20260506003212 9 41 9.7 19.3 0.10 1.24 1.24 84 1009.9
20260506002712 10 22 9.7 19.3 0.10 1.24 1.24 83 1009.8
20260506002211 10 22 8.0 17.7 0.08 1.22 1.22 81 1009.7
20260506001713 11 9 8.0 17.7 0.08 1.22 1.22 80 1009.8
20260506000711 12 10 8.0 17.7 0.05 1.19 1.19 75 1009.7
20260506000212 12 12 8.0 19.3 0.00 1.14 1.14 73 1010.0
20260505235712 12 345 8.0 19.3 0.00 1.14 1.14 72 1009.5
20260505235212 12 19 8.0 20.9 0.00 1.14 1.14 72 1009.2
20260505234712 13 22 8.0 20.9 0.00 1.14 1.14 72 1009.1
20260505234211 13 0 8.0 17.7 0.00 1.14 1.14 72 1009.0
20260505233212 13 328 9.7 30.6 0.00 1.14 1.14 73 1009.0
20260505232712 13 348 12.9 30.6 0.00 1.14 1.14 72 1008.8
20260505232211 14 0 11.3 25.7 0.00 1.14 1.14 72 1008.6
20260505231940 14 312 11.3 24.1 0.00 1.14 1.14 72 1008.6
20260505231429 15 350 11.3 22.5 0.00 1.14 1.14 72 1008.4
20260505230713 15 328 11.3 22.5 0.00 1.14 1.14 71 1008.3
20260505225711 15 0 12.9 27.4 0.00 1.14 1.14 70 1007.8
20260505225212 16 303 12.9 27.4 0.00 1.14 1.14 72 1007.6
20260505224712 16 355 11.3 20.9 0.00 1.14 1.14 74 1007.6
20260505224212 16 25 8.0 20.9 0.00 1.14 1.14 75 1007.3
20260505223713 17 36 8.0 16.1 0.00 1.14 1.14 76 1007.2
20260505223212 17 5 9.7 17.7 0.00 1.14 1.14 75 1007.1
20260505222434 17 5 8.0 17.7 0.00 1.14 1.14 76 1006.9
20260505221936 17 23 6.4 12.9 0.00 1.14 1.14 77 1006.7
20260505221212 18 355 6.4 14.5 0.00 1.14 1.14 76 1006.7
20260505220711 18 9 8.0 16.1 0.00 1.14 1.14 76 1006.6
20260505220211 18 355 9.7 17.7 0.00 1.14 1.14 75 1006.4
20260505215712 18 334 8.0 17.7 0.00 1.14 1.14 76 1006.3
20260505215212 18 32 3.2 17.7 0.03 1.14 1.14 81 1006.3
20260505214713 19 267 3.2 14.5 0.03 1.14 1.14 83 1006.1
20260505214212 19 255 3.2 14.5 0.08 1.14 1.14 84 1006.2
20260505213712 19 228 3.2 8.0 0.08 1.14 1.14 87 1006.0
20260505213433 18 227 3.2 8.0 0.08 1.14 1.14 87 1006.0
20260505212935 18 228 3.2 8.0 0.08 1.14 1.14 87 1006.0
20260505212211 18 223 3.2 6.4 0.08 1.14 1.14 88 1006.0